Hourly Weather Barnin

Today, 8 May, Saturday

Time Temperature Precipitation Wind Pressure Humidity
00:00 +2°C° 0.1 mm 5 mps 758 mmHg 93%
01:00 +1°C° 0 mm 5 mps 758 mmHg 93%
02:00 +1°C° 0.1 mm 5 mps 759 mmHg 94%
03:00 +1°C° 0.1 mm 5 mps 759 mmHg 95%
04:00 +1°C° 0.1 mm 6 mps 759 mmHg 96%
05:00 +2°C° 0.1 mm 6 mps 759 mmHg 92%
06:00 +3°C° 0.1 mm 6 mps 760 mmHg 88%
07:00 +3°C° 0 mm 7 mps 760 mmHg 84%
08:00 +4°C° 0.1 mm 7 mps 760 mmHg 80%
09:00 +5°C° 0.1 mm 7 mps 761 mmHg 76%
10:00 +6°C° 0.1 mm 7 mps 761 mmHg 72%
11:00 +6°C° 0.1 mm 7 mps 761 mmHg 68%
12:00 +8°C° 0.1 mm 6 mps 761 mmHg 64%
13:00 +8°C° 0.1 mm 6 mps 762 mmHg 60%
14:00 +8°C° 0 mm 5 mps 762 mmHg 60%
15:00 +10°C° 0 mm 4 mps 762 mmHg 59%
16:00 +10°C° 0 mm 3 mps 762 mmHg 58%
17:00 +9°C° 0 mm 3 mps 762 mmHg 63%
18:00 +8°C° 0 mm 2 mps 762 mmHg 68%
19:00 +8°C° 0 mm 1 mps 762 mmHg 72%
20:00 +6°C° 0 mm 2 mps 762 mmHg 72%
21:00 +5°C° 0 mm 3 mps 761 mmHg 73%
22:00 +4°C° 0 mm 4 mps 761 mmHg 73%
23:00 +5°C° 0 mm 4 mps 761 mmHg 70%

Tomorrow, 9 May, Sunday

Time Temperature Precipitation Wind Pressure Humidity
00:00 +5°C° 0 mm 5 mps 761 mmHg 67%
01:00 +5°C° 0 mm 6 mps 761 mmHg 65%
02:00 +5°C° 0 mm 6 mps 760 mmHg 65%
03:00 +5°C° 0 mm 6 mps 760 mmHg 65%
04:00 +5°C° 0 mm 6 mps 759 mmHg 65%
05:00 +5°C° 0.2 mm 7 mps 759 mmHg 69%
06:00 +5°C° 0.2 mm 7 mps 758 mmHg 73%
07:00 +5°C° 0.2 mm 7 mps 758 mmHg 76%
08:00 +9°C° 0 mm 7 mps 758 mmHg 71%
09:00 +11°C° 0 mm 7 mps 758 mmHg 66%
10:00 +14°C° 0 mm 7 mps 758 mmHg 61%
11:00 +16°C° 0 mm 6 mps 758 mmHg 59%
12:00 +19°C° 0 mm 6 mps 757 mmHg 56%
13:00 +20°C° 0 mm 6 mps 757 mmHg 54%
14:00 +21°C° 0 mm 6 mps 757 mmHg 55%
15:00 +21°C° 0 mm 5 mps 757 mmHg 56%
16:00 +21°C° 0 mm 5 mps 757 mmHg 57%
17:00 +20°C° 0 mm 5 mps 757 mmHg 62%
18:00 +18°C° 0 mm 4 mps 757 mmHg 68%
19:00 +17°C° 0 mm 4 mps 757 mmHg 74%
20:00 +15°C° 0 mm 4 mps 757 mmHg 78%
21:00 +14°C° 0 mm 5 mps 757 mmHg 81%
22:00 +14°C° 0 mm 5 mps 757 mmHg 85%
23:00 +13°C° 0 mm 5 mps 757 mmHg 85%

Day after tomorrow, 10 May, Monday

Time Temperature Precipitation Wind Pressure Humidity
00:00 +13°C° 0 mm 5 mps 757 mmHg 85%
01:00 +13°C° 0 mm 6 mps 757 mmHg 85%
02:00 +11°C° 0 mm 6 mps 757 mmHg 82%
03:00 +11°C° 0 mm 6 mps 757 mmHg 79%
04:00 +11°C° 0 mm 6 mps 757 mmHg 76%
05:00 +12°C° 0 mm 7 mps 757 mmHg 72%
06:00 +14°C° 0 mm 7 mps 756 mmHg 68%
07:00 +15°C° 0 mm 7 mps 756 mmHg 65%
08:00 +16°C° 0 mm 7 mps 756 mmHg 60%
09:00 +18°C° 0 mm 7 mps 756 mmHg 56%
10:00 +20°C° 0 mm 6 mps 756 mmHg 51%
11:00 +21°C° 0 mm 7 mps 756 mmHg 51%
12:00 +22°C° 0 mm 7 mps 756 mmHg 50%
13:00 +22°C° 0 mm 7 mps 755 mmHg 50%
14:00 +22°C° 0 mm 6 mps 755 mmHg 52%
15:00 +22°C° 0 mm 6 mps 756 mmHg 55%
16:00 +22°C° 0 mm 5 mps 756 mmHg 58%
17:00 +21°C° 0 mm 5 mps 756 mmHg 63%
18:00 +20°C° 0 mm 4 mps 756 mmHg 69%
19:00 +19°C° 0 mm 3 mps 756 mmHg 74%
20:00 +18°C° 0 mm 3 mps 757 mmHg 79%
21:00 +17°C° 0 mm 3 mps 757 mmHg 84%
22:00 +14°C° 0 mm 3 mps 757 mmHg 89%
23:00 +14°C° 0 mm 3 mps 757 mmHg 90%

11 May, Tuesday

Time Temperature Precipitation Wind Pressure Humidity
00:00 +14°C° 0 mm 2 mps 757 mmHg 92%
01:00 +13°C° 0 mm 2 mps 757 mmHg 94%
02:00 +13°C° 0 mm 2 mps 757 mmHg 95%
03:00 +12°C° 0 mm 3 mps 757 mmHg 95%
04:00 +12°C° 0 mm 3 mps 756 mmHg 96%
05:00 +13°C° 0 mm 3 mps 756 mmHg 90%
06:00 +15°C° 0 mm 4 mps 756 mmHg 84%
07:00 +17°C° 0 mm 4 mps 755 mmHg 78%
08:00 +19°C° 0 mm 5 mps 755 mmHg 72%
09:00 +20°C° 0 mm 5 mps 755 mmHg 65%
10:00 +22°C° 0 mm 5 mps 755 mmHg 59%
11:00 +23°C° 0 mm 5 mps 754 mmHg 58%
12:00 +23°C° 0 mm 4 mps 754 mmHg 57%
13:00 +25°C° 0 mm 4 mps 754 mmHg 56%
14:00 +25°C° 0 mm 4 mps 754 mmHg 57%
15:00 +25°C° 0 mm 4 mps 753 mmHg 58%
16:00 +25°C° 0 mm 3 mps 753 mmHg 58%
17:00 +24°C° 0 mm 3 mps 753 mmHg 64%
18:00 +21°C° 0 mm 3 mps 753 mmHg 70%
19:00 +20°C° 0 mm 2 mps 753 mmHg 76%
20:00 +19°C° 0 mm 3 mps 753 mmHg 79%
21:00 +18°C° 0 mm 3 mps 754 mmHg 83%
22:00 +17°C° 0 mm 3 mps 754 mmHg 86%
23:00 +17°C° 0 mm 3 mps 754 mmHg 88%

12 May, Wednesday

Time Temperature Precipitation Wind Pressure Humidity
00:00 +17°C° 0 mm 3 mps 754 mmHg 91%
01:00 +17°C° 0 mm 4 mps 754 mmHg 93%
02:00 +15°C° 0 mm 4 mps 754 mmHg 92%
03:00 +15°C° 0 mm 5 mps 754 mmHg 91%
04:00 +15°C° 0 mm 5 mps 753 mmHg 89%
05:00 +15°C° 0 mm 5 mps 753 mmHg 85%
06:00 +16°C° 0 mm 5 mps 753 mmHg 80%
07:00 +16°C° 0 mm 5 mps 753 mmHg 75%
08:00 +19°C° 0 mm 5 mps 753 mmHg 70%
09:00 +20°C° 0 mm 6 mps 753 mmHg 65%
10:00 +22°C° 0 mm 6 mps 753 mmHg 60%
11:00 +22°C° 0 mm 5 mps 753 mmHg 58%
12:00 +23°C° 0 mm 5 mps 753 mmHg 56%
13:00 +25°C° 0 mm 5 mps 753 mmHg 55%
14:00 +25°C° 0.1 mm 5 mps 753 mmHg 57%
15:00 +23°C° 0.1 mm 5 mps 753 mmHg 59%
16:00 +23°C° 0.1 mm 5 mps 754 mmHg 62%
17:00 +20°C° 0.1 mm 5 mps 754 mmHg 71%
18:00 +17°C° 0.1 mm 4 mps 755 mmHg 81%
19:00 +14°C° 0.1 mm 4 mps 755 mmHg 90%
20:00 +13°C° 0 mm 3 mps 755 mmHg 91%
21:00 +13°C° 0 mm 2 mps 756 mmHg 93%
22:00 +12°C° 0 mm 1 mps 756 mmHg 94%
23:00 +12°C° 0 mm 1 mps 756 mmHg 94%

13 May, Thursday

Time Temperature Precipitation Wind Pressure Humidity
00:00 +12°C° 0 mm 1 mps 756 mmHg 94%
01:00 +10°C° 0 mm 2 mps 756 mmHg 95%
02:00 +10°C° 0 mm 2 mps 756 mmHg 94%
03:00 +10°C° 0 mm 2 mps 756 mmHg 93%
04:00 +10°C° 0 mm 2 mps 756 mmHg 92%
05:00 +11°C° 0 mm 3 mps 756 mmHg 86%
06:00 +12°C° 0 mm 3 mps 756 mmHg 79%
07:00 +13°C° 0 mm 4 mps 756 mmHg 73%
08:00 +14°C° 0 mm 4 mps 756 mmHg 66%
09:00 +17°C° 0 mm 3 mps 756 mmHg 60%
10:00 +18°C° 0 mm 3 mps 756 mmHg 53%
11:00 +18°C° 0 mm 4 mps 756 mmHg 52%
12:00 +19°C° 0 mm 4 mps 755 mmHg 50%
13:00 +19°C° 0 mm 4 mps 755 mmHg 49%
14:00 +17°C° 0 mm 5 mps 755 mmHg 55%
15:00 +16°C° 0 mm 5 mps 755 mmHg 60%
16:00 +15°C° 0 mm 5 mps 754 mmHg 66%
17:00 +15°C° 0 mm 5 mps 754 mmHg 69%
18:00 +14°C° 0 mm 4 mps 754 mmHg 72%
19:00 +14°C° 0 mm 4 mps 754 mmHg 75%
20:00 +13°C° 0 mm 3 mps 754 mmHg 76%
21:00 +13°C° 0 mm 3 mps 754 mmHg 76%
22:00 +12°C° 0 mm 3 mps 754 mmHg 77%
23:00 +13°C° 0 mm 2 mps 754 mmHg 79%
Show more